period_start,C,m1,H,J0,J1,J2,J3,J4,J5,JA,JB,JC,JD,JJ,JK,JN,#
2013-12-20 00:00:50,0.31,6.16,0.00,23.25,27.66,30.15,6.20,32.00,1037.13,2037.99,1759.15,2004.08,2180.29,350.85,331.07,27.63,0000 0000 0000 0000 000000
2013-12-20 00:01:51,0.21,6.16,0.00,23.28,27.66,30.14,6.27,32.21,1037.13,2038.00,1759.05,2004.03,2180.11,350.00,329.87,27.63,0000 0000 0000 0000 000000
2013-12-20 00:02:51,0.11,6.16,0.00,23.31,27.66,30.15,6.11,32.38,1037.13,2038.00,1759.02,2004.01,2180.04,349.56,329.75,27.64,0000 0000 0000 0000 000000
2013-12-20 00:03:51,0.03,6.16,0.00,23.30,27.66,30.15,6.25,31.92,1037.13,2038.00,1758.72,2003.99,2180.00,351.59,331.67,27.64,0000 0000 0000 0000 000000
2013-12-20 00:04:51,0.15,6.16,0.00,23.28,27.67,30.13,6.22,32.00,1037.13,2038.00,1758.33,2003.98,2179.99,350.10,330.07,27.65,0000 0000 0000 0000 000000
2013-12-20 00:05:52,0.15,6.16,0.00,23.25,27.66,30.12,6.13,32.25,1037.14,2038.00,1758.12,2003.77,2179.88,349.48,329.73,27.65,0000 0000 0000 0000 000000
2013-12-20 00:06:52,0.22,6.16,0.00,23.29,27.66,30.14,6.07,31.58,1037.14,2038.00,1758.04,2003.38,2179.44,349.40,329.76,27.66,0000 0000 0000 0000 000000
2013-12-20 00:07:52,0.31,6.17,0.00,23.30,27.66,30.19,6.12,31.88,1037.14,2038.00,1758.01,2003.15,2179.18,350.49,330.50,27.67,0000 0000 0000 0000 000000
2013-12-20 00:08:52,0.18,6.17,0.00,23.29,27.67,30.20,5.93,31.92,1037.14,2038.00,1757.95,2003.05,2179.07,349.59,330.02,27.67,0000 0000 0000 0000 000000
2013-12-20 00:09:52,0.09,6.17,0.00,23.36,27.66,30.16,6.16,31.83,1037.13,2038.00,1757.54,2003.02,2179.02,349.63,329.12,27.68,0000 0000 0000 0000 000000
2013-12-20 00:10:53,0.20,6.17,0.00,23.35,27.66,30.18,6.03,31.75,1037.13,2038.00,1757.20,2002.99,2178.99,349.49,329.63,27.68,0000 0000 0000 0000 000000
2013-12-20 00:11:53,0.14,6.17,0.00,23.32,27.66,30.16,6.27,31.79,1037.13,2038.00,1757.07,2002.92,2178.94,350.13,330.09,27.69,0000 0000 0000 0000 000000
2013-12-20 00:12:53,0.10,6.17,0.00,23.37,27.66,30.19,5.88,31.50,1037.14,2038.00,1757.02,2002.68,2178.65,350.23,330.32,27.70,0000 0000 0000 0000 000000
2013-12-20 00:13:53,0.22,6.17,0.00,23.36,27.66,30.17,5.95,31.54,1037.15,2038.00,1756.98,2002.36,2178.33,348.22,328.86,27.70,0000 0000 0000 0000 000000
2013-12-20 00:14:54,0.22,6.17,0.00,23.38,27.66,30.17,6.07,32.00,1037.15,2038.00,1756.67,2002.14,2178.13,349.84,329.94,27.71,0000 0000 0000 0000 000000
2013-12-20 00:15:54,0.28,6.17,0.00,23.34,27.66,30.19,6.15,32.13,1037.14,2038.00,1756.27,2002.06,2178.05,349.55,329.69,27.71,0000 0000 0000 0000 000000
2013-12-20 00:16:54,0.21,6.18,0.00,23.34,27.66,30.17,6.02,31.96,1037.14,2038.00,1756.10,2002.02,2178.01,349.09,329.27,27.72,0000 0000 0000 0000 000000
2013-12-20 00:17:54,0.09,6.18,0.00,23.33,27.66,30.17,6.05,32.08,1037.14,2038.00,1756.03,2002.00,2177.99,349.93,329.66,27.72,0000 0000 0000 0000 000000
2013-12-20 00:18:55,0.03,6.18,0.00,23.31,27.66,30.20,6.21,31.79,1037.15,2038.00,1756.01,2001.95,2177.84,351.03,331.13,27.73,0000 0000 0000 0000 000000
2013-12-20 00:19:55,0.08,6.18,0.00,23.31,27.66,30.20,6.15,32.08,1037.15,2038.00,1755.82,2001.75,2177.50,350.46,330.60,27.74,0000 0000 0000 0000 000000
2013-12-20 00:20:55,0.28,6.18,0.00,23.35,27.66,30.18,6.00,31.63,1037.15,2038.00,1755.39,2001.40,2177.23,350.33,330.66,27.74,0000 0000 0000 0000 000000
2013-12-20 00:21:56,0.38,6.18,0.00,23.33,27.66,30.18,6.05,31.92,1037.13,2038.00,1755.15,2001.16,2177.09,350.03,330.19,27.75,0000 0000 0000 0000 000000
2013-12-20 00:22:56,0.23,6.18,0.00,23.31,27.66,30.18,6.11,31.96,1037.14,2038.00,1755.06,2001.07,2177.03,349.87,330.04,27.75,0000 0000 0000 0000 000000
2013-12-20 00:23:56,0.08,6.18,0.00,23.27,27.66,30.23,6.23,31.83,1037.13,2038.00,1755.01,2001.02,2177.00,349.98,330.11,27.76,0000 0000 0000 0000 000000
2013-12-20 00:24:57,0.04,6.18,0.00,23.27,27.65,30.20,6.02,32.08,1037.13,2038.00,1754.97,2001.00,2176.94,348.88,329.55,27.77,0000 0000 0000 0000 000000
2013-12-20 00:25:57,0.02,6.18,0.00,23.31,27.66,30.18,6.14,31.92,1037.13,2038.00,1754.64,2000.98,2176.77,350.35,330.14,27.77,0000 0000 0000 0000 000000
2013-12-20 00:26:57,0.25,6.18,0.00,23.31,27.66,30.20,6.11,31.88,1037.13,2038.00,1754.25,2000.85,2176.34,349.39,329.73,27.78,0000 0000 0000 0000 000000
2013-12-20 00:27:57,0.32,6.19,0.00,23.25,27.66,30.20,6.20,32.13,1037.16,2038.00,1754.09,2000.49,2176.13,350.10,330.46,27.78,0000 0000 0000 0000 000000
2013-12-20 00:28:57,0.26,6.19,0.00,23.25,27.65,30.16,6.11,31.96,1037.18,2038.00,1754.03,2000.19,2176.05,349.94,330.18,27.79,0000 0000 0000 0000 000000
2013-12-20 00:29:57,0.16,6.19,0.00,23.25,27.66,30.12,6.09,32.25,1037.17,2038.00,1753.98,2000.07,2176.01,349.08,329.48,27.80,0000 0000 0000 0000 000000
2013-12-20 00:30:58,0.07,6.19,0.00,23.26,27.65,30.16,6.18,31.83,1037.14,2037.99,1753.74,2000.02,2176.00,350.15,329.69,27.80,0000 0000 0000 0000 000000
2013-12-20 00:31:58,0.10,6.19,0.00,23.27,27.66,30.17,6.05,31.42,1037.14,2037.99,1753.36,2000.00,2175.96,350.03,329.74,27.81,0000 0000 0000 0000 000000
2013-12-20 00:32:58,0.18,6.19,0.00,23.30,27.65,30.18,6.08,31.63,1037.14,2037.99,1753.13,1999.98,2175.76,349.13,329.42,27.81,0000 0000 0000 0000 000000
2013-12-20 00:33:58,0.16,6.19,0.00,23.32,27.65,30.15,6.08,31.88,1037.13,2037.99,1753.05,1999.96,2175.33,349.99,330.57,27.82,0000 0000 0000 0000 000000
2013-12-20 00:34:58,0.14,6.19,0.00,23.34,27.65,30.17,6.02,31.92,1037.14,2037.99,1753.00,1999.75,2175.12,349.94,329.20,27.82,0000 0000 0000 0000 000000
2013-12-20 00:35:58,0.20,6.19,0.00,23.30,27.65,30.16,5.88,31.96,1037.15,2037.99,1752.93,1999.39,2175.04,349.10,329.33,27.83,0000 0000 0000 0000 000000
2013-12-20 00:36:59,0.17,6.19,0.00,23.29,27.65,30.13,6.07,32.00,1037.14,2037.99,1752.67,1999.18,2175.01,349.56,329.77,27.84,0000 0000 0000 0000 000000
2013-12-20 00:37:59,0.22,6.20,0.00,23.24,27.65,30.14,6.02,31.50,1037.14,2037.99,1752.30,1999.07,2175.00,348.99,329.28,27.84,0000 0000 0000 0000 000000
2013-12-20 00:38:59,0.19,6.20,0.00,23.26,27.65,30.14,6.17,32.00,1037.13,2037.99,1752.11,1999.02,2174.99,350.03,330.38,27.85,0000 0000 0000 0000 000000
2013-12-20 00:39:59,0.09,6.20,0.00,23.30,27.65,30.12,6.18,31.88,1037.13,2037.99,1752.04,1999.00,2174.82,350.06,330.13,27.85,0000 0000 0000 0000 000000
2013-12-20 00:40:59,0.07,6.20,0.00,23.33,27.65,30.20,6.10,32.29,1037.13,2037.99,1752.00,1998.95,2174.47,349.78,329.93,27.86,0000 0000 0000 0000 000000
2013-12-20 00:42:00,0.13,6.20,0.00,23.36,27.65,30.16,6.12,31.96,1037.14,2037.99,1751.91,1998.77,2174.19,350.56,330.17,27.87,0000 0000 0000 0000 000000
2013-12-20 00:43:00,0.19,6.20,0.00,23.32,27.65,30.16,6.05,31.88,1037.13,2037.99,1751.52,1998.46,2174.07,350.18,330.21,27.87,0000 0000 0000 0000 000000
2013-12-20 00:44:00,0.34,6.20,0.00,23.30,27.65,30.16,6.20,32.00,1037.13,2037.99,1751.22,1998.19,2174.02,350.70,330.70,27.88,0000 0000 0000 0000 000000
2013-12-20 00:45:00,0.25,6.20,0.00,23.29,27.65,30.16,6.23,31.92,1037.13,2037.99,1751.08,1998.07,2174.00,350.93,331.10,27.88,0000 0000 0000 0000 000000
2013-12-20 00:46:01,0.11,6.20,0.00,23.29,27.65,30.15,6.15,32.17,1037.13,2037.99,1751.02,1998.02,2173.95,350.14,330.27,27.89,0000 0000 0000 0000 000000
2013-12-20 00:47:01,0.04,6.20,0.00,23.30,27.65,30.16,6.08,32.04,1037.13,2037.99,1750.97,1998.00,2173.79,349.09,329.62,27.89,0000 0000 0000 0000 000000
2013-12-20 00:48:01,0.08,6.21,0.00,23.31,27.65,30.15,6.01,31.75,1037.12,2037.99,1750.76,1997.99,2173.46,350.08,330.37,27.90,0000 0000 0000 0000 000000
2013-12-20 00:49:01,0.19,6.21,0.00,23.28,27.65,30.16,5.98,31.71,1037.12,2037.99,1750.33,1997.96,2173.21,349.58,329.80,27.91,0000 0000 0000 0000 000000
2013-12-20 00:50:02,0.24,6.21,0.00,23.29,27.65,30.18,6.17,31.96,1037.12,2037.99,1750.13,1997.72,2173.08,350.60,330.88,27.91,0000 0000 0000 0000 000000
2013-12-20 00:51:02,0.23,6.21,0.00,23.35,27.65,30.19,6.23,32.13,1037.12,2037.99,1750.05,1997.35,2173.03,350.81,330.09,27.92,0000 0000 0000 0000 000000
2013-12-20 00:52:02,0.21,6.21,0.00,23.38,27.65,30.18,6.11,31.92,1037.11,2037.99,1750.00,1997.14,2172.99,349.87,330.04,27.92,0000 0000 0000 0000 000000
2013-12-20 00:53:02,0.11,6.21,0.00,23.46,27.65,30.20,5.99,31.54,1037.11,2037.99,1749.90,1997.05,2172.97,349.14,329.53,27.93,0000 0000 0000 0000 000000
2013-12-20 00:54:03,0.07,6.21,0.00,23.46,27.65,30.18,6.01,31.67,1037.11,2037.99,1749.51,1997.02,2172.78,349.38,329.41,27.94,0000 0000 0000 0000 000000
2013-12-20 00:55:03,0.24,6.21,0.00,23.47,27.65,30.16,6.05,31.71,1037.11,2038.00,1749.22,1996.99,2172.48,349.41,329.70,27.94,0000 0000 0000 0000 000000
2013-12-20 00:56:03,0.21,6.21,0.00,23.40,27.65,30.22,6.08,31.96,1037.10,2038.01,1749.08,1996.96,2172.20,349.92,329.76,27.95,0000 0000 0000 0000 000000
2013-12-20 00:57:03,0.15,6.22,0.00,23.30,27.65,30.24,5.84,31.71,1037.11,2038.00,1749.02,1996.87,2172.08,349.13,329.32,27.95,0000 0000 0000 0000 000000
2013-12-20 00:58:03,0.08,6.22,0.00,23.29,27.65,30.21,6.03,31.92,1037.11,2038.01,1748.97,1996.59,2172.03,349.98,330.15,27.96,0000 0000 0000 0000 000000
2013-12-20 00:59:04,0.16,6.22,0.00,23.25,27.65,30.20,6.13,31.96,1037.10,2038.00,1748.81,1996.25,2172.01,349.28,329.54,27.96,0000 0000 0000 0000 000000
2013-12-20 01:00:04,0.22,6.22,0.00,23.23,27.65,30.17,6.12,32.17,1037.08,2038.00,1748.41,1996.12,2172.00,350.18,330.40,27.97,0000 0000 0000 0000 000000
2013-12-20 01:01:04,0.22,6.22,0.00,23.23,27.65,30.14,5.96,31.83,1037.10,2038.00,1748.17,1996.04,2171.91,348.06,328.41,27.98,0000 0000 0000 0000 000000
2013-12-20 01:02:04,0.15,6.22,0.00,23.21,27.65,30.14,6.15,31.58,1037.09,2038.00,1748.06,1996.00,2171.46,350.64,330.96,27.98,0000 0000 0000 0000 000000
2013-12-20 01:03:05,0.18,6.22,0.00,23.20,27.65,30.16,6.11,31.71,1037.05,2038.00,1748.02,1995.96,2171.17,349.65,329.93,27.99,0000 0000 0000 0000 000000
2013-12-20 01:04:05,0.11,6.22,0.00,23.23,27.65,30.20,6.21,32.17,1037.06,2038.00,1747.98,1995.92,2171.06,350.52,330.71,27.99,0000 0000 0000 0000 000000
2013-12-20 01:05:05,0.03,6.22,0.00,23.25,27.65,30.21,6.11,31.79,1037.02,2038.00,1747.79,1995.72,2171.02,350.14,330.31,28.00,0000 0000 0000 0000 000000
2013-12-20 01:06:05,0.18,6.22,0.00,23.29,27.65,30.17,6.03,31.67,1036.89,2038.00,1747.39,1995.36,2171.01,349.50,329.64,28.01,0000 0000 0000 0000 000000
2013-12-20 01:07:05,0.34,6.23,0.00,23.34,27.65,30.18,6.21,31.88,1036.84,2038.00,1747.15,1995.14,2170.98,350.34,330.36,28.01,0000 0000 0000 0000 000000
2013-12-20 01:08:06,0.20,6.23,0.00,23.40,27.65,30.18,6.06,32.00,1036.78,2038.00,1747.05,1995.05,2170.75,349.34,329.10,28.02,0000 0000 0000 0000 000000
2013-12-20 01:09:06,0.13,6.23,0.00,23.42,27.65,30.18,6.10,31.75,1036.73,2038.00,1747.02,1995.02,2170.40,350.53,330.40,28.02,0000 0000 0000 0000 000000
2013-12-20 01:10:06,0.11,6.23,0.00,23.40,27.65,30.17,6.16,31.75,1036.71,2038.00,1746.98,1994.99,2170.18,351.58,331.42,28.03,0000 0000 0000 0000 000000
2013-12-20 01:11:07,0.08,6.23,0.00,23.40,27.65,30.17,6.02,31.75,1036.69,2038.00,1746.82,1994.97,2170.08,350.17,330.32,28.03,0000 0000 0000 0000 000000
2013-12-20 01:12:07,0.10,6.23,0.00,23.39,27.65,30.18,6.11,31.75,1036.70,2038.00,1746.41,1994.85,2170.03,350.94,330.37,28.04,0000 0000 0000 0000 000000
2013-12-20 01:13:07,0.26,6.23,0.00,23.38,27.65,30.16,6.08,32.04,1036.66,2038.01,1746.16,1994.52,2170.01,349.17,329.15,28.05,0000 0000 0000 0000 000000
2013-12-20 01:14:07,0.25,6.23,0.00,23.31,27.65,30.16,6.25,32.25,1036.67,2038.00,1746.06,1994.23,2169.96,351.78,331.17,28.05,0000 0000 0000 0000 000000
2013-12-20 01:15:08,0.15,6.23,0.00,23.30,27.65,30.18,6.13,32.08,1036.68,2038.01,1746.02,1994.10,2169.85,350.02,330.19,28.06,0000 0000 0000 0000 000000
2013-12-20 01:16:08,0.11,6.23,0.00,23.31,27.65,30.15,6.14,31.71,1036.69,2038.00,1745.97,1994.03,2169.45,349.56,329.96,28.06,0000 0000 0000 0000 000000
2013-12-20 01:17:08,0.15,6.23,0.00,23.33,27.65,30.14,6.04,31.67,1036.72,2038.00,1745.62,1994.01,2169.17,349.50,329.10,28.07,0000 0000 0000 0000 000000
2013-12-20 01:18:08,0.23,6.24,0.00,23.38,27.65,30.13,6.02,31.50,1036.73,2038.00,1745.26,1994.00,2169.06,349.34,329.10,28.08,0000 0000 0000 0000 000000
2013-12-20 01:19:09,0.17,6.24,0.00,23.37,27.65,30.17,6.22,32.17,1036.71,2038.00,1745.10,1993.92,2169.02,349.52,329.51,28.08,0000 0000 0000 0000 000000
2013-12-20 01:20:09,0.12,6.24,0.00,23.35,27.65,30.16,6.05,31.75,1036.70,2038.00,1745.03,1993.56,2168.97,349.52,329.53,28.09,0000 0000 0000 0000 000000
2013-12-20 01:21:09,0.20,6.24,0.00,23.30,27.65,30.14,6.07,31.75,1036.68,2038.00,1744.97,1993.26,2168.77,348.83,329.06,28.09,0000 0000 0000 0000 000000
2013-12-20 01:22:09,0.20,6.24,0.00,23.29,27.65,30.12,6.12,31.67,1036.70,2038.00,1744.67,1993.11,2168.36,349.75,329.40,28.10,0000 0000 0000 0000 000000
2013-12-20 01:23:10,0.29,6.24,0.00,23.26,27.65,30.12,5.93,31.92,1036.67,2038.00,1744.31,1993.04,2168.14,349.30,329.40,28.11,0000 0000 0000 0000 000000
2013-12-20 01:24:10,0.24,6.24,0.00,23.17,27.65,30.15,6.02,31.79,1036.66,2038.00,1744.11,1993.01,2168.05,349.78,329.70,28.11,0000 0000 0000 0000 000000
2013-12-20 01:25:10,0.10,6.24,0.00,23.18,27.65,30.15,6.25,32.00,1036.65,2038.00,1744.04,1992.98,2168.01,350.06,329.97,28.12,0000 0000 0000 0000 000000
2013-12-20 01:26:11,0.05,6.24,0.00,23.21,27.65,30.17,6.14,32.33,1036.67,2038.00,1744.00,1992.95,2168.00,349.93,329.98,28.12,0000 0000 0000 0000 000000
2013-12-20 01:27:11,0.03,6.24,0.00,23.22,27.65,30.18,6.13,31.79,1036.66,2038.00,1743.96,1992.75,2167.97,349.31,329.69,28.13,0000 0000 0000 0000 000000
2013-12-20 01:28:11,0.11,6.24,0.00,23.20,27.65,30.16,5.90,32.13,1036.65,2038.00,1743.73,1992.35,2167.83,348.26,328.49,28.13,0000 0000 0000 0000 000000
2013-12-20 01:29:11,0.33,6.25,0.00,23.21,27.65,30.16,6.06,31.96,1036.64,2038.00,1743.30,1992.13,2167.45,349.09,329.26,28.14,0000 0000 0000 0000 000000
2013-12-20 01:30:12,0.38,6.25,0.00,23.26,27.65,30.19,6.16,31.92,1036.64,2038.00,1743.10,1992.05,2167.18,349.61,329.93,28.15,0000 0000 0000 0000 000000
2013-12-20 01:31:12,0.18,6.25,0.00,23.30,27.65,30.16,6.09,31.63,1036.64,2038.00,1743.03,1992.01,2167.07,350.33,330.86,28.15,0000 0000 0000 0000 000000
2013-12-20 01:32:12,0.06,6.25,0.00,23.31,27.66,30.20,6.02,31.92,1036.64,2038.00,1742.99,1991.99,2167.03,349.38,329.48,28.16,0000 0000 0000 0000 000000
2013-12-20 01:33:12,0.03,6.25,0.00,23.32,27.66,30.19,6.12,31.92,1036.64,2038.00,1742.81,1991.96,2167.01,350.88,331.01,28.16,0000 0000 0000 0000 000000
2013-12-20 01:34:13,0.09,6.25,0.00,23.40,27.66,30.18,6.14,31.96,1036.64,2038.00,1742.50,1991.89,2166.98,349.91,329.82,28.17,0000 0000 0000 0000 000000
2013-12-20 01:35:13,0.16,6.25,0.00,23.40,27.66,30.15,5.99,31.63,1036.64,2038.00,1742.22,1991.57,2166.79,349.86,329.77,28.18,0000 0000 0000 0000 000000
2013-12-20 01:36:13,0.34,6.25,0.00,23.37,27.66,30.15,6.17,32.04,1036.64,2038.00,1742.09,1991.26,2166.43,350.03,329.96,28.18,0000 0000 0000 0000 000000
2013-12-20 01:37:13,0.27,6.26,0.00,23.34,27.66,30.16,6.07,32.04,1036.64,2038.00,1742.02,1991.09,2166.16,349.89,329.86,28.19,0000 0000 0000 0000 000000
2013-12-20 01:38:14,0.17,6.26,0.00,23.25,27.67,30.19,5.99,31.92,1036.64,2038.00,1741.97,1991.03,2166.06,349.05,329.16,28.19,0000 0000 0000 0000 000000
2013-12-20 01:39:14,0.07,6.26,0.00,23.24,27.67,30.18,6.21,31.96,1036.64,2038.00,1741.75,1991.01,2166.01,350.39,330.46,28.20,0000 0000 0000 0000 000000
2013-12-20 01:40:14,0.12,6.26,0.00,23.25,27.67,30.16,6.15,31.75,1036.64,2038.00,1741.33,1990.98,2165.98,349.60,329.69,28.20,0000 0000 0000 0000 000000
2013-12-20 01:41:14,0.19,6.26,0.00,23.25,27.67,30.13,6.12,31.88,1036.64,2038.00,1741.12,1990.78,2165.82,350.50,330.79,28.21,0000 0000 0000 0000 000000
2013-12-20 01:42:14,0.19,6.26,0.00,23.26,27.67,30.14,6.04,32.00,1036.64,2038.00,1741.04,1990.49,2165.54,349.55,329.63,28.22,0000 0000 0000 0000 000000
2013-12-20 01:43:15,0.24,6.26,0.00,23.31,27.67,30.15,6.23,32.33,1036.63,2038.00,1740.99,1990.22,2165.22,350.06,330.06,28.22,0000 0000 0000 0000 000000
2013-12-20 01:44:15,0.25,6.26,0.00,23.34,27.67,30.14,6.01,32.00,1036.64,2038.00,1740.77,1990.08,2165.08,349.63,329.62,28.23,0000 0000 0000 0000 000000
2013-12-20 01:45:15,0.16,6.26,0.00,23.35,27.67,30.16,6.15,32.13,1036.64,2038.00,1740.38,1990.03,2165.03,349.23,328.99,28.23,0000 0000 0000 0000 000000
2013-12-20 01:46:15,0.21,6.27,0.00,23.30,27.67,30.14,6.27,32.21,1036.64,2038.00,1740.15,1990.01,2165.00,349.98,330.35,28.24,0000 0000 0000 0000 000000
2013-12-20 01:47:16,0.10,6.27,0.00,23.23,27.67,30.14,6.11,31.92,1036.64,2038.00,1740.06,1990.00,2164.97,349.92,330.04,28.25,0000 0000 0000 0000 000000
2013-12-20 01:48:16,0.04,6.27,0.00,23.19,27.67,30.11,6.10,31.63,1036.64,2038.00,1740.02,1989.95,2164.91,349.84,329.98,28.25,0000 0000 0000 0000 000000
2013-12-20 01:49:16,0.07,6.27,0.00,23.18,27.67,30.14,6.05,31.96,1036.64,2038.00,1739.99,1989.77,2164.59,349.04,329.23,28.26,0000 0000 0000 0000 000000
2013-12-20 01:50:17,0.19,6.27,0.00,23.18,27.67,30.16,6.16,31.92,1036.64,2038.00,1739.87,1989.41,2164.25,350.40,330.06,28.26,0000 0000 0000 0000 000000
2013-12-20 01:51:17,0.30,6.27,0.00,23.17,27.67,30.17,6.04,31.71,1036.64,2038.00,1739.50,1989.17,2164.09,349.24,329.44,28.27,0000 0000 0000 0000 000000
2013-12-20 01:52:17,0.29,6.27,0.00,23.21,27.67,30.21,6.16,32.21,1036.64,2038.00,1739.21,1989.06,2164.03,350.23,330.31,28.28,0000 0000 0000 0000 000000
2013-12-20 01:53:18,0.16,6.27,0.00,23.20,27.67,30.16,6.02,31.63,1036.64,2038.00,1739.07,1989.02,2164.01,349.64,330.27,28.28,0000 0000 0000 0000 000000
2013-12-20 01:54:18,0.07,6.27,0.00,23.23,27.67,30.15,6.12,31.75,1036.64,2038.00,1739.01,1988.99,2163.98,350.45,330.29,28.29,0000 0000 0000 0000 000000
2013-12-20 01:55:18,0.06,6.27,0.00,23.27,27.67,30.15,6.23,31.83,1036.64,2038.00,1738.83,1988.96,2163.78,350.59,329.95,28.29,0000 0000 0000 0000 000000
2013-12-20 01:56:19,0.17,6.27,0.00,23.28,27.67,30.15,6.13,31.83,1036.64,2038.00,1738.43,1988.69,2163.39,349.97,330.01,28.30,0000 0000 0000 0000 000000
2013-12-20 01:57:19,0.35,6.28,0.00,23.26,27.67,30.12,6.06,31.71,1036.64,2038.00,1738.16,1988.27,2163.14,350.16,330.14,28.30,0000 0000 0000 0000 000000
2013-12-20 01:58:19,0.36,6.28,0.00,23.27,27.67,30.17,6.14,32.08,1036.62,2038.00,1738.06,1988.10,2163.05,350.08,330.07,28.31,0000 0000 0000 0000 000000
2013-12-20 01:59:20,0.14,6.28,0.00,23.28,27.67,30.17,6.04,31.79,1036.64,2038.00,1737.95,1988.03,2163.01,349.91,329.94,28.32,0000 0000 0000 0000 000000
2013-12-20 02:00:20,0.10,6.28,0.00,23.26,27.67,30.16,6.14,32.08,1036.63,2038.00,1737.62,1987.99,2162.95,350.33,330.39,28.32,0000 0000 0000 0000 000000
2013-12-20 02:01:20,0.18,6.28,0.00,23.24,27.67,30.19,6.07,31.96,1036.63,2038.00,1737.26,1987.97,2162.61,349.91,330.24,28.33,0000 0000 0000 0000 000000
2013-12-20 02:02:21,0.23,6.28,0.00,23.19,27.67,30.19,6.14,32.08,1036.64,2038.00,1737.09,1987.81,2162.27,349.98,330.18,28.33,0000 0000 0000 0000 000000
2013-12-20 02:03:21,0.22,6.28,0.00,23.21,27.67,30.23,6.11,32.00,1036.63,2038.00,1737.03,1987.46,2162.10,349.54,329.92,28.34,0000 0000 0000 0000 000000
2013-12-20 02:04:21,0.23,6.28,0.00,23.16,27.67,30.20,6.00,31.83,1036.63,2038.00,1736.93,1987.18,2162.03,349.49,329.88,28.35,0000 0000 0000 0000 000000
2013-12-20 02:05:21,0.20,6.29,0.00,23.23,27.67,30.18,6.05,32.00,1036.60,2038.00,1736.48,1987.06,2162.01,349.32,329.61,28.35,0000 0000 0000 0000 000000
2013-12-20 02:06:22,0.22,6.29,0.00,23.25,27.67,30.18,6.23,32.21,1036.60,2038.00,1736.19,1987.01,2161.91,350.54,330.26,28.36,0000 0000 0000 0000 000000
2013-12-20 02:07:22,0.17,6.29,0.00,23.21,27.67,30.18,6.16,31.75,1036.63,2038.00,1736.06,1986.99,2161.51,350.53,330.16,28.36,0000 0000 0000 0000 000000
2013-12-20 02:08:22,0.16,6.29,0.00,23.23,27.67,30.17,6.08,31.79,1036.61,2038.00,1736.02,1986.84,2161.21,349.78,330.11,28.37,0000 0000 0000 0000 000000
2013-12-20 02:09:22,0.21,6.29,0.00,23.20,27.67,30.15,6.10,32.17,1036.59,2038.00,1735.77,1986.39,2161.08,349.06,329.49,28.38,0000 0000 0000 0000 000000
2013-12-20 02:10:23,0.31,6.29,0.00,23.23,27.67,30.15,6.09,31.92,1036.60,2038.00,1735.35,1986.14,2161.03,349.73,329.82,28.38,0000 0000 0000 0000 000000
2013-12-20 02:11:23,0.28,6.29,0.00,23.26,27.67,30.18,6.23,32.04,1036.54,2038.00,1735.13,1986.07,2161.00,350.31,330.32,28.39,0000 0000 0000 0000 000000
2013-12-20 02:12:23,0.13,6.29,0.00,23.28,27.67,30.16,6.02,31.75,1036.50,2038.00,1735.05,1986.02,2160.94,349.55,329.57,28.39,0000 0000 0000 0000 000000
2013-12-20 02:13:24,0.09,6.30,0.00,23.22,27.67,30.15,6.20,32.00,1036.45,2038.00,1735.00,1986.00,2160.59,350.61,330.62,28.40,0000 0000 0000 0000 000000
2013-12-20 02:14:24,0.10,6.30,0.00,23.22,27.67,30.15,6.12,31.67,1036.34,2038.00,1734.94,1985.97,2160.29,349.82,329.84,28.40,0000 0000 0000 0000 000000
2013-12-20 02:15:24,0.14,6.30,0.00,23.29,27.67,30.17,6.21,31.88,1036.36,2038.00,1734.52,1985.89,2160.13,350.17,330.10,28.41,0000 0000 0000 0000 000000
2013-12-20 02:16:24,0.22,6.30,0.00,23.28,27.67,30.16,6.08,31.88,1036.32,2038.00,1734.25,1985.63,2160.05,350.34,330.50,28.42,0000 0000 0000 0000 000000
2013-12-20 02:17:24,0.27,6.30,0.00,23.32,27.67,30.17,5.91,31.67,1036.33,2038.00,1734.11,1985.32,2160.02,348.53,328.50,28.42,0000 0000 0000 0000 000000
2013-12-20 02:18:25,0.19,6.30,0.00,23.36,27.67,30.18,6.01,31.83,1036.34,2038.00,1734.04,1985.12,2159.97,349.31,329.21,28.43,0000 0000 0000 0000 000000
2013-12-20 02:19:25,0.12,6.30,0.00,23.40,27.67,30.18,6.05,31.96,1036.29,2038.00,1733.96,1985.04,2159.89,349.41,329.24,28.43,0000 0000 0000 0000 000000
2013-12-20 02:20:25,0.11,6.30,0.00,23.40,27.67,30.18,6.07,31.88,1036.23,2038.00,1733.66,1985.01,2159.54,349.13,328.94,28.44,0000 0000 0000 0000 000000
2013-12-20 02:21:26,0.19,6.30,0.00,23.36,27.67,30.19,6.18,31.79,1036.28,2038.00,1733.30,1984.99,2159.23,349.85,329.41,28.45,0000 0000 0000 0000 000000
2013-12-20 02:22:26,0.24,6.30,0.00,23.31,27.67,30.16,5.95,31.71,1036.24,2038.00,1733.12,1984.90,2159.08,349.57,329.47,28.45,0000 0000 0000 0000 000000
2013-12-20 02:23:26,0.19,6.31,0.00,23.27,27.67,30.16,5.97,31.63,1036.21,2038.00,1733.04,1984.52,2159.03,349.86,329.89,28.46,0000 0000 0000 0000 000000
2013-12-20 02:24:26,0.19,6.31,0.00,23.29,27.67,30.15,6.13,31.96,1036.21,2038.00,1733.00,1984.23,2159.01,349.29,329.23,28.46,0000 0000 0000 0000 000000
2013-12-20 02:25:27,0.15,6.31,0.00,23.29,27.67,30.15,6.12,31.96,1036.17,2038.00,1732.85,1984.10,2158.97,349.95,329.46,28.47,0000 0000 0000 0000 000000
2013-12-20 02:26:27,0.16,6.31,0.00,23.23,27.67,30.16,6.05,32.04,1036.18,2038.00,1732.43,1984.04,2158.71,349.85,329.78,28.47,0000 0000 0000 0000 000000
2013-12-20 02:27:27,0.24,6.31,0.00,23.26,27.67,30.15,6.13,31.83,1036.18,2038.00,1732.15,1984.01,2158.31,349.19,329.09,28.48,0000 0000 0000 0000 000000
2013-12-20 02:28:28,0.20,6.31,0.00,23.27,27.67,30.16,6.08,31.79,1036.16,2038.00,1732.05,1984.00,2158.13,350.46,330.32,28.49,0000 0000 0000 0000 000000
2013-12-20 02:29:28,0.09,6.31,0.00,23.25,27.67,30.18,6.13,31.92,1036.15,2038.00,1732.02,1983.98,2158.05,350.42,330.16,28.49,0000 0000 0000 0000 000000
2013-12-20 02:30:28,0.04,6.31,0.00,23.24,27.67,30.19,6.18,31.92,1036.18,2038.00,1731.94,1983.86,2158.02,350.59,330.59,28.50,0000 0000 0000 0000 000000
2013-12-20 02:31:28,0.11,6.31,0.00,23.21,27.67,30.15,6.15,31.96,1036.16,2038.00,1731.80,1983.56,2158.00,349.06,329.08,28.50,0000 0000 0000 0000 000000
2013-12-20 02:32:29,0.25,6.32,0.00,23.20,27.67,30.16,6.22,32.04,1036.16,2038.00,1731.38,1983.24,2157.86,350.55,330.49,28.51,0000 0000 0000 0000 000000
2013-12-20 02:33:29,0.32,6.32,0.00,23.20,27.67,30.15,6.20,32.13,1036.17,2038.00,1731.14,1983.09,2157.47,350.07,329.64,28.52,0000 0000 0000 0000 000000
2013-12-20 02:34:29,0.24,6.32,0.00,23.17,27.67,30.16,6.17,31.96,1036.16,2038.00,1731.02,1983.03,2157.18,350.32,330.57,28.52,0000 0000 0000 0000 000000
2013-12-20 02:35:29,0.12,6.32,0.00,23.21,27.67,30.14,5.96,31.79,1036.16,2038.00,1730.96,1983.01,2157.07,349.24,329.43,28.53,0000 0000 0000 0000 000000
2013-12-20 02:36:29,0.10,6.32,0.00,23.23,27.67,30.19,6.20,31.96,1036.15,2038.00,1730.55,1982.99,2157.02,350.21,330.13,28.53,0000 0000 0000 0000 000000